BEIDOU IGSO 5

Last updated on April 2, 2019, 3:15 a.m. UTC

1 37948U 11073A   19091.88952427 -.00000122  00000-0  10000-3 0  9998
2 37948  52.2750 303.1124 0056204 207.6624  95.2320  1.00270977 26992
UTC
Height (km)
Latitude
Longitude
Inclination
Orbital Period
UTC large
Height (km)
Speed (km/s)
/
Latitude / Longitude
Inclination (degrees)
Orbital Period (minutes)
Azimuth
Elevation
Range (km)
Doppler Factor
iOS Compass Heading
iOS Angle

Next 30 passes for location: Hong Kong

Rise time Rise Azimuth (degrees) Set time Set Azimuth (degrees) Duration Max altitude (degrees)

No matching passes for this satellites